Hyannis, MA

8:40 PM EST on December 07, 2016 (GMT -0500)
Barnstable Municipal-Boardman-Polando Field

Weather History for KHYA - February, 2012

Change the Weather History Date:

Wednesday, February 29, 2012

  Actual Average Record
Temperature  
Mean Temperature 34 °F -  
Max Temperature 41 °F - 64 °F (1976)
Min Temperature 26 °F - 9 °F (1980)
Degree Days  
Heating Degree Days 32    
Moisture  
Dew Point 29 °F    
Average Humidity 83    
Maximum Humidity 96    
Minimum Humidity 51    
Precipitation  
Precipitation 0.31 in - - ()
Sea Level Pressure  
Sea Level Pressure 30.17 in    
Wind  
Wind Speed 4 mph (ENE)    
Max Wind Speed 12 mph    
Max Gust Speed 24 mph    
Visibility 6 miles    
Events Rain , Snow    
Averages and records for this station are not official NWS values.
T = Trace of Precipitation, MM = Missing Value Source: NWS Daily Summary

Daily Weather History Graph

Daily Weather History Graph

Search for Another Location

Airport or City:

Trip Planner

Search our weather history database for the weather conditions in past years. The results will help you decide how hot, cold, wet, or windy it might be!

Date:

Astronomy

Feb. 29, 2012 Rise Set
Actual Time 6:16 AM EST 5:30 PM EST
Civil Twilight 5:48 AM EST 5:58 PM EST
Nautical Twilight 5:16 AM EST 6:31 PM EST
Astronomical Twilight 4:44 AM EST 7:03 PM EST
Moon 9:58 AM EST (2/29) 12:21 AM EST (2/29)
Length of Visible Light 12h 10m
Length of Day
11h 14m
Waxing Crescent, 47% of the Moon is Illuminated
Feb 29
Waxing Crescent
Feb 29
First Quarter
Mar 8
Full
Mar 14
Last Quarter
Mar 22
New

Hourly Weather History & Observations

Time (EST) Temp. Windchill Dew Point Humidity Pressure Visibility Wind Dir Wind Speed Gust Speed Precip Events Conditions
12:56 AM 28.0 °F - 21.0 °F 75% 30.37 in 10.0 mi Calm Calm - N/A   Mostly Cloudy
1:56 AM 28.0 °F - 21.0 °F 75% 30.37 in 10.0 mi Calm Calm - N/A   Mostly Cloudy
2:56 AM 27.0 °F - 21.0 °F 78% 30.36 in 10.0 mi Calm Calm - N/A   Partly Cloudy
3:56 AM 27.0 °F - 21.9 °F 81% 30.34 in 10.0 mi Calm Calm - N/A   Partly Cloudy
4:56 AM 27.0 °F - 21.0 °F 78% 30.35 in 10.0 mi Calm Calm - N/A   Partly Cloudy
5:56 AM 26.1 °F - 21.9 °F 84% 30.35 in 10.0 mi Calm Calm - N/A   Mostly Cloudy
6:56 AM 28.0 °F - 21.9 °F 78% 30.33 in 10.0 mi Calm Calm - N/A   Clear
7:56 AM 37.0 °F 33.3 °F 25.0 °F 62% 30.33 in 10.0 mi North 4.6 mph - N/A   Mostly Cloudy
8:56 AM 39.0 °F - 23.0 °F 53% 30.32 in 10.0 mi Calm Calm - N/A   Partly Cloudy
9:56 AM 39.9 °F - 25.0 °F 55% 30.31 in 10.0 mi Calm Calm - N/A   Mostly Cloudy
10:56 AM 41.0 °F 39.0 °F 24.1 °F 51% 30.31 in 10.0 mi SSW 3.5 mph - N/A   Overcast
11:56 AM 39.9 °F 35.1 °F 25.0 °F 55% 30.27 in 10.0 mi NNE 6.9 mph - N/A   Overcast
12:56 PM 39.9 °F 36.7 °F 25.0 °F 55% 30.25 in 10.0 mi North 4.6 mph - N/A   Overcast
1:54 PM 37.4 °F 32.1 °F 30.2 °F 75% 30.22 in 9.0 mi NNE 6.9 mph - 0.00 in   Overcast
1:56 PM 37.0 °F 31.0 °F 30.0 °F 76% 30.22 in 9.0 mi ENE 8.1 mph - 0.00 in Snow Light Snow
2:11 PM 35.6 °F 29.9 °F 30.2 °F 81% 30.21 in 9.0 mi NE 6.9 mph - 0.00 in   Overcast
2:44 PM 35.6 °F 29.2 °F 33.8 °F 93% 30.20 in 10.0 mi NE 8.1 mph - 0.00 in Rain Light Rain
2:56 PM 36.0 °F 29.6 °F 33.1 °F 89% 30.19 in 10.0 mi ENE 8.1 mph - 0.00 in   Overcast
3:04 PM 35.6 °F 29.2 °F 32.0 °F 87% 30.18 in 10.0 mi ENE 8.1 mph - 0.00 in   Overcast
3:52 PM 33.8 °F 27.7 °F 32.0 °F 93% 30.15 in 2.5 mi ENE 6.9 mph - 0.00 in Snow Light Snow
3:56 PM 34.0 °F 28.0 °F 32.0 °F 92% 30.16 in 2.0 mi ENE 6.9 mph - 0.01 in Snow Light Snow
4:03 PM 33.8 °F 28.6 °F 32.0 °F 93% 30.14 in 1.5 mi East 5.8 mph - 0.00 in Snow Light Snow
4:23 PM 33.8 °F 29.6 °F 32.0 °F 93% 30.14 in 0.8 mi ENE 4.6 mph - 0.02 in Snow Light Snow
4:38 PM 33.8 °F 27.7 °F 32.0 °F 93% 30.13 in 1.2 mi ENE 6.9 mph - 0.02 in Snow Light Snow
4:56 PM 33.1 °F 26.9 °F 32.0 °F 96% 30.14 in 1.0 mi ENE 6.9 mph - 0.03 in Snow Light Snow
5:24 PM 33.8 °F 28.6 °F 32.0 °F 93% 30.11 in 2.0 mi ENE 5.8 mph - 0.01 in Snow Light Snow
5:42 PM 33.8 °F 27.0 °F 32.0 °F 93% 30.10 in 1.5 mi East 8.1 mph - 0.03 in Snow Light Snow
5:56 PM 33.1 °F 26.9 °F 32.0 °F 96% 30.10 in 1.5 mi East 6.9 mph - 0.04 in Snow Light Snow
6:46 PM 33.8 °F 27.0 °F 32.0 °F 93% 30.06 in 2.5 mi East 8.1 mph - 0.05 in Snow Light Snow
6:56 PM 34.0 °F 26.6 °F 32.0 °F 92% 30.06 in 3.0 mi East 9.2 mph - 0.06 in Snow Light Snow
7:56 PM 34.0 °F 27.2 °F 33.1 °F 96% 30.03 in 5.0 mi East 8.1 mph 17.3 mph 0.05 in Rain Light Rain
8:56 PM 37.0 °F 29.8 °F 35.1 °F 93% 30.01 in 5.0 mi East 10.4 mph 18.4 mph 0.04 in Rain Light Rain
9:56 PM 37.9 °F 30.5 °F 36.0 °F 93% 29.93 in 7.0 mi East 11.5 mph 17.3 mph 0.02 in Rain Light Rain
10:56 PM 39.0 °F 32.3 °F 37.0 °F 93% 29.91 in 2.5 mi East 10.4 mph 19.6 mph 0.01 in Rain Light Rain
11:05 PM 39.2 °F 33.6 °F 37.4 °F 93% 29.90 in 3.0 mi East 8.1 mph 20.7 mph 0.00 in Rain Light Rain
11:12 PM 39.2 °F 32.5 °F 37.4 °F 93% 29.90 in 2.5 mi East 10.4 mph 19.6 mph 0.01 in Rain Light Rain
11:56 PM 39.0 °F 31.8 °F 37.0 °F 93% 29.86 in 6.0 mi East 11.5 mph 24.2 mph 0.05 in Rain Light Rain